[[{"header":{"parameterUnit":"m.s-1","parameterCategory":1,"la1":30.2991,"la2":30.254,"lo1":-89.0895,"lo2":-89.0444,"dx":0.0017,"dy":0.0017,"nx":28,"ny":28,"refTime":"2022-12-29T15:00:00:Z","depth":0,"parameterNumber":2,"parameterNumberName":"U-component_of_WINDS"},"data":[0,0,0,0,0,0,0,0,0,0,0,0,0,0,0,0,0,0,0,0,0,0,0,0,0,0,0,0,0,0,0,0,0,0,0,0,0,0,0,0,0,0,0,0,0,0,0,0,0,0,0,0,0,0,0,0,0,0,-6.2465,-6.2465,0,-6.2532,-6.2533,-6.2534,-6.246,-6.2457,-6.2455,-6.2452,-6.2516,-6.252,-6.2525,0,0,0,0,0,0,0,0,0,0,0,0,0,-6.2269,-6.2273,-6.2465,-6.2465,-6.2466,-6.2532,-6.2533,-6.2534,-6.2461,-6.2457,-6.2454,-6.2451,-6.2515,-6.252,-6.2525,0,0,0,0,0,0,0,0,0,0,0,0,0,-6.2347,-6.2275,-6.2464,-6.2438,-6.2436,-6.2532,-6.2533,-6.2534,-6.2461,-6.2457,-6.2453,-6.2449,-6.2513,-6.2519,-6.2526,-6.2649,0,0,-6.2545,-6.2548,0,0,0,0,0,0,0,0,-6.2343,-6.2354,-6.2441,-6.244,-6.2438,-6.2484,-6.2488,-6.2573,-6.2463,-6.2452,-6.2452,-6.2447,-6.2508,-6.2515,-6.2537,-6.2652,-6.2655,-6.2546,-6.255,-6.2553,-6.2554,0,0,0,0,0,0,0,-6.2338,-6.2351,-6.2491,-6.2442,-6.2441,-6.2422,-6.2428,-6.2503,-6.2502,-6.2452,-6.2447,-6.2456,-6.2507,-6.2531,-6.2538,-6.2656,-6.2546,-6.2551,-6.2555,-6.2558,-6.2878,-6.2883,0,0,0,0,0,0,-6.2336,-6.2347,-6.2489,-6.2493,-6.2379,-6.2429,-6.2436,-6.2473,-6.2501,-6.2502,-6.246,-6.2453,-6.2522,-6.253,-6.254,-6.2686,-6.2553,-6.2559,-6.2562,-6.2874,-6.2879,-6.2884,0,0,0,0,0,0,-6.2332,-6.2349,-6.2486,-6.2419,-6.2435,-6.2436,-6.2479,-6.2477,-6.25,-6.2507,-6.2506,-6.2485,-6.2519,-6.253,-6.2623,-6.2688,-6.2562,-6.2567,-6.2868,-6.2876,-6.2882,-6.2981,0,0,0,0,0,0,-6.2327,-6.2348,-6.2395,-6.2421,-6.2439,-6.257,-6.2483,-6.2481,-6.2512,-6.2504,-6.253,-6.2531,-6.2516,-6.2614,-6.263,-6.2694,-6.2572,-6.2862,-6.2871,-6.288,-6.2972,-6.2991,-6.3007,0,0,0,0,0,-6.232,-6.2419,-6.2398,-6.2416,-6.2498,-6.2574,-6.2584,-6.2567,-6.2518,-6.2565,-6.257,-6.253,-6.2679,-6.2624,-6.2641,-6.2709,-6.2858,-6.2869,-6.2879,-6.2964,-6.2987,-6.3006,0,0,0,0,0,0,-6.2398,-6.2422,-6.2399,-6.2509,-6.2541,-6.2561,-6.2619,-6.2591,-6.2635,-6.2625,-6.2601,-6.2607,-6.2706,-6.2717,-6.2655,-6.2831,-6.276,-6.2775,-6.282,-6.2841,-6.2858,-6.2852,-6.2578,0,0,0,0,0,-6.2429,-6.249,-6.2506,-6.2602,-6.2619,-6.2618,-6.265,-6.2635,-6.2665,-6.2677,-6.2688,-6.2718,-6.2772,-6.2808,-6.2857,-6.2975,-6.2979,-6.303,-6.3047,-6.3061,-6.3073,-6.3137,-6.3159,-6.2919,-6.2919,-6.2918,0,0,-6.2491,-6.2512,-6.2551,-6.2619,-6.2641,-6.2703,-6.2629,-6.2697,-6.2743,-6.2687,-6.2775,-6.2786,-6.2818,-6.2924,-6.2971,-6.2936,-6.3141,-6.3075,-6.3086,-6.309,-6.315,-6.3173,-6.3193,-6.2926,-6.2924,-6.2923,0,0,-6.2637,-6.266,-6.2742,-6.2768,-6.2804,-6.2803,-6.2823,-6.2849,-6.2855,-6.2944,-6.2904,-6.2958,-6.3051,-6.3076,-6.3101,-6.3262,-6.3226,-6.3279,-6.3368,-6.343,-6.3449,-6.3466,-6.3523,-6.3543,-6.3291,-6.3292,-6.3292,0,-6.2709,-6.2803,-6.2788,-6.2861,-6.2892,-6.2848,-6.2931,-6.2956,-6.3006,-6.3028,-6.2989,-6.3107,-6.3125,-6.3236,-6.3277,-6.3298,-6.332,-6.3274,-6.3448,-6.3465,-6.348,-6.3534,-6.3555,-6.3298,-6.3297,-6.3296,-6.3296,0,-6.2891,-6.2957,-6.302,-6.3072,-6.311,-6.3188,-6.3184,-6.3225,-6.3208,-6.3211,-6.3304,-6.3326,-6.3379,-6.3406,-6.3388,-6.3516,-6.3493,-6.3452,-6.338,-6.3509,-6.3559,-6.358,-6.3306,-6.3304,-6.3302,-6.3301,0,0,-6.3082,-6.3129,-6.3152,-6.3176,-6.3216,-6.3266,-6.3343,-6.3398,-6.3434,-6.3471,-6.3534,-6.3616,-6.358,-6.3608,-6.3594,-6.3649,-6.3776,-6.3601,-6.3602,-6.3632,-6.3918,-6.3947,-6.3971,-6.3754,-6.3758,-6.3761,-6.3914,0,-6.3228,-6.3363,-6.3353,-6.3479,-6.3541,-6.3502,-6.3569,-6.36,-6.3607,-6.3659,-6.3665,-6.3724,-6.3671,-6.3688,-6.3742,-6.3749,-6.3832,-6.3738,-6.3811,-6.3814,-6.3801,-6.3997,-6.4027,-6.417,-6.3934,-6.3937,-6.394,0,-6.3415,-6.3462,-6.3595,-6.3628,-6.3653,-6.3714,-6.3765,-6.3816,-6.3852,-6.3852,-6.3887,-6.3865,-6.3942,-6.3872,-6.3978,-6.3914,-6.3944,-6.3953,-6.3958,-6.3962,-6.3882,-6.4004,-6.4215,-6.4236,-6.3971,-6.3968,-6.3966,0,-6.354,-6.3637,-6.3729,-6.3752,-6.3792,-6.3836,-6.3855,-6.3886,-6.3921,-6.3967,-6.3989,-6.4042,-6.4071,-6.4112,-6.4105,-6.4055,-6.4213,-6.4142,-6.4215,-6.4215,-6.4246,-6.4244,-6.4464,-6.4271,-6.427,-6.427,-6.4269,0,-6.3702,-6.3784,-6.3787,-6.3843,-6.3935,-6.3925,-6.4016,-6.4029,-6.4059,-6.4117,-6.4088,-6.4143,-6.4131,-6.4186,-6.4182,-6.427,-6.4284,-6.4286,-6.4283,-6.4287,-6.4286,-6.4303,-6.4292,-6.4275,-6.4274,-6.4273,-6.4272,0,-6.3855,-6.386,-6.3958,-6.3991,-6.4001,-6.4068,-6.4095,-6.4148,-6.4155,-6.4229,-6.4246,-6.4255,-6.4318,-6.4317,-6.4388,-6.4385,-6.4494,-6.4481,-6.4482,-6.4478,-6.4551,-6.4543,-6.4787,-6.4818,-6.4607,-6.4609,-6.4611,0,-6.3956,-6.4019,-6.4061,-6.4099,-6.4121,-6.4183,-6.422,-6.4213,-6.4253,-6.43,-6.4348,-6.441,-6.4458,-6.4562,-6.4574,-6.4629,-6.4616,-6.4698,-6.4623,-6.4626,-6.4615,-6.461,-6.4616,-6.4711,-6.4713,-6.4715,-6.4717,0,-6.4135,-6.4136,-6.4191,-6.4249,-6.4295,-6.4339,-6.4379,-6.4412,-6.441,-6.4456,-6.4523,-6.4561,-6.4636,-6.4698,-6.4752,-6.477,-6.4743,-6.4741,-6.476,-6.4763,-6.4761,-6.4762,-6.4519,-6.4734,-6.4732,-6.4731,-6.473,-6.4729,-6.4264,-6.4319,-6.4358,-6.4421,-6.4452,-6.4492,-6.4545,-6.456,-6.4616,-6.4678,-6.4671,-6.4745,-6.4781,-6.4852,-6.4876,-6.4933,-6.4903,-6.4932,-6.4938,-6.4945,-6.4952,-6.4755,-6.4943,-6.4942,-6.4942,-6.4941,-6.4941,0,-6.444,-6.4465,-6.4524,-6.4583,-6.4634,-6.4609,-6.4654,-6.4696,-6.4763,-6.48,-6.485,-6.4927,-6.4988,-6.5007,-6.5066,-6.5108,-6.5097,-6.5123,-6.5118,-6.5123,-6.4976,-6.4952,-6.5131,-6.5131,-6.5131,-6.5131,-6.5131,-6.5131,-6.4538,-6.463,-6.4636,-6.4744,-6.4768,-6.4842,-6.487,-6.4907,-6.4937,-6.5025,-6.5076,-6.509,-6.512,-6.5182,-6.5236,-6.524,-6.5262,-6.5293,-6.5292,-6.5153,-6.5133,-6.5115,-6.5093,-6.5299,-6.5299,-6.5434,-6.5436,-6.5437]},{"header":{"parameterUnit":"m.s-1","parameterCategory":1,"la1":30.2991,"la2":30.254,"lo1":-89.0895,"lo2":-89.0444,"dx":0.0017,"dy":0.0017,"nx":28,"ny":28,"refTime":"2022-12-29T15:00:00:Z","depth":0,"parameterNumber":3,"parameterNumberName":"V-component_of_WINDS"},"data":[0,0,0,0,0,0,0,0,0,0,0,0,0,0,0,0,0,0,0,0,0,0,0,0,0,0,0,0,0,0,0,0,0,0,0,0,0,0,0,0,0,0,0,0,0,0,0,0,0,0,0,0,0,0,0,0,0,0,1.4257,1.4258,0,1.4301,1.4301,1.4302,1.4342,1.4342,1.4343,1.4343,1.4387,1.4388,1.4388,0,0,0,0,0,0,0,0,0,0,0,0,0,1.4212,1.4213,1.4257,1.4258,1.4259,1.43,1.4301,1.4302,1.4342,1.4342,1.4343,1.4343,1.4387,1.4388,1.4388,0,0,0,0,0,0,0,0,0,0,0,0,0,1.4241,1.4213,1.4257,1.4283,1.4286,1.43,1.4301,1.4302,1.4341,1.4342,1.4343,1.4344,1.4386,1.4387,1.4389,1.438,0,0,1.4392,1.4392,0,0,0,0,0,0,0,0,1.4239,1.4243,1.4279,1.4282,1.4285,1.4317,1.4301,1.4328,1.4341,1.432,1.4343,1.4344,1.4363,1.4366,1.4372,1.4382,1.4384,1.4392,1.4392,1.4393,1.4393,0,0,0,0,0,0,0,1.4237,1.4241,1.4275,1.428,1.4283,1.4294,1.4299,1.4306,1.4337,1.4322,1.4325,1.433,1.4365,1.4371,1.4374,1.4385,1.4392,1.4393,1.4393,1.4394,1.4394,1.4393,0,0,0,0,0,0,1.4231,1.4239,1.4273,1.4276,1.4263,1.4294,1.43,1.4306,1.4337,1.4343,1.4329,1.4332,1.4369,1.4372,1.4375,1.437,1.4393,1.4394,1.4395,1.4394,1.4393,1.4393,0,0,0,0,0,0,1.423,1.4234,1.4271,1.4258,1.4264,1.4294,1.43,1.4306,1.4313,1.4342,1.4348,1.433,1.437,1.4374,1.438,1.4372,1.4394,1.4395,1.4395,1.4394,1.4393,1.4357,0,0,0,0,0,0,1.4228,1.4233,1.4229,1.4258,1.4264,1.4274,1.43,1.4306,1.4314,1.4318,1.4345,1.435,1.4371,1.4378,1.4381,1.4374,1.4396,1.4396,1.4394,1.4393,1.4359,1.4355,1.4352,0,0,0,0,0,1.4227,1.4217,1.4229,1.4233,1.426,1.4273,1.4277,1.4301,1.4314,1.4311,1.4331,1.4349,1.4372,1.4378,1.4381,1.4375,1.4396,1.4395,1.4393,1.4361,1.4356,1.4352,0,0,0,0,0,0,1.4185,1.4221,1.4235,1.4234,1.425,1.428,1.4277,1.4295,1.4308,1.4311,1.4341,1.4346,1.4349,1.4363,1.4368,1.437,1.4387,1.4386,1.4361,1.4357,1.4353,1.435,1.4397,0,0,0,0,0,1.4176,1.4184,1.4214,1.421,1.4218,1.4246,1.4253,1.427,1.4289,1.4296,1.4315,1.4333,1.4345,1.4351,1.4363,1.4362,1.4369,1.4359,1.4355,1.4352,1.4351,1.4354,1.435,1.4388,1.4388,1.4388,0,0,1.4157,1.4178,1.418,1.4203,1.4218,1.4225,1.4252,1.4258,1.4264,1.4297,1.4304,1.4319,1.4341,1.4343,1.4345,1.4355,1.4343,1.435,1.4347,1.4348,1.4352,1.4348,1.4345,1.4387,1.4387,1.4387,0,0,1.4127,1.4142,1.4142,1.4157,1.418,1.4199,1.4199,1.4227,1.4239,1.4247,1.4272,1.4281,1.4299,1.4314,1.4324,1.4304,1.4322,1.4307,1.4287,1.4289,1.4286,1.4284,1.4278,1.4276,1.4306,1.4306,1.4306,0,1.41,1.4113,1.414,1.4145,1.4156,1.4186,1.4187,1.4201,1.4226,1.4233,1.4243,1.4269,1.4286,1.4294,1.4289,1.4296,1.4298,1.4304,1.4285,1.4282,1.4281,1.4276,1.4273,1.4304,1.4304,1.4304,1.4304,0,1.408,1.4088,1.4086,1.4111,1.4121,1.4124,1.4152,1.4159,1.4177,1.4196,1.4205,1.4226,1.4244,1.4248,1.4264,1.4259,1.4264,1.4279,1.4297,1.4275,1.4271,1.4269,1.4301,1.4302,1.4302,1.4303,0,0,1.4023,1.4065,1.4064,1.4077,1.4106,1.4113,1.4119,1.4138,1.4144,1.4161,1.4168,1.4185,1.42,1.4211,1.423,1.4232,1.4217,1.4248,1.4249,1.4242,1.4215,1.4204,1.4202,1.423,1.423,1.4229,1.4214,0,1.3998,1.401,1.4036,1.404,1.405,1.4081,1.4086,1.4105,1.4124,1.4135,1.4156,1.4168,1.4186,1.4193,1.4197,1.4218,1.4212,1.422,1.4237,1.4238,1.4232,1.4199,1.4187,1.4171,1.4212,1.4212,1.4212,0,1.397,1.3987,1.3993,1.4024,1.4029,1.4033,1.4054,1.4064,1.4087,1.4101,1.4115,1.4137,1.4147,1.4163,1.4178,1.4182,1.4191,1.4203,1.4203,1.4206,1.4224,1.4202,1.4167,1.4165,1.4209,1.421,1.421,0,1.393,1.3954,1.3961,1.3971,1.4007,1.401,1.4026,1.405,1.406,1.4079,1.4086,1.4105,1.4116,1.4131,1.4158,1.4167,1.417,1.4188,1.4182,1.4182,1.4181,1.4181,1.4148,1.4186,1.4186,1.4186,1.4186,0,1.39,1.3903,1.3944,1.3948,1.3953,1.3984,1.3988,1.4006,1.4028,1.4037,1.4065,1.4074,1.4108,1.4121,1.4143,1.4153,1.4157,1.4169,1.4175,1.4167,1.4165,1.4173,1.4175,1.4186,1.4186,1.4186,1.4186,0,1.3856,1.3884,1.3894,1.3928,1.3937,1.3939,1.3969,1.3975,1.3996,1.4008,1.4013,1.4046,1.4063,1.4092,1.4116,1.4131,1.4137,1.4146,1.413,1.4133,1.4127,1.4127,1.4098,1.4096,1.4134,1.4134,1.4133,0,1.3835,1.3838,1.3874,1.3882,1.3897,1.391,1.3922,1.3953,1.3964,1.3992,1.3996,1.4015,1.4032,1.4059,1.4085,1.4105,1.4116,1.4104,1.4119,1.4112,1.4117,1.4117,1.4118,1.4101,1.41,1.4099,1.4099,0,1.3796,1.3811,1.3826,1.3847,1.386,1.3878,1.3897,1.3903,1.3939,1.395,1.3969,1.3982,1.4009,1.4029,1.4053,1.407,1.4091,1.4095,1.4095,1.4087,1.4077,1.4084,1.4121,1.4095,1.4095,1.4096,1.4096,1.4096,1.3764,1.3769,1.3796,1.3813,1.3831,1.3849,1.3858,1.3881,1.3896,1.3921,1.3939,1.3956,1.3983,1.4018,1.4034,1.4049,1.4058,1.4058,1.4058,1.4057,1.4055,1.4075,1.4053,1.4053,1.4054,1.4054,1.4054,0,1.3728,1.3747,1.3762,1.379,1.3804,1.3823,1.3846,1.3857,1.3872,1.3895,1.3912,1.3934,1.3954,1.3984,1.4006,1.4013,1.4024,1.4018,1.4018,1.4022,1.4045,1.4043,1.4009,1.4009,1.4009,1.4009,1.4009,1.4009,1.371,1.3721,1.3739,1.3759,1.3779,1.3797,1.3809,1.3826,1.3845,1.3869,1.3886,1.3905,1.3932,1.3957,1.3977,1.3985,1.3993,1.3984,1.3996,1.4016,1.402,1.4024,1.4023,1.3985,1.3985,1.3972,1.3972,1.3972]}]]